Weather History for Pascagoula, MS

Change the Weather History Date:

Thursday, June 27, 2013

  Actual Average Record
Temperature  
Mean Temperature 83 °F -  
Max Temperature 91 °F 89 °F 95 °F (1969)
Min Temperature 75 °F 72 °F 60 °F (1974)
Cooling Degree Days 18    
Growing Degree Days 33 (Base 50)    
Moisture  
Dew Point 76 °F    
Average Humidity 77    
Maximum Humidity 94    
Minimum Humidity 57    
Precipitation  
Precipitation 0.00 in - - ()
Sea Level Pressure  
Sea Level Pressure 29.98 in    
Wind  
Wind Speed 2 mph (SW)    
Max Wind Speed 9 mph    
Max Gust Speed -    
Visibility 10 miles    
Events      
Averages and records for this station are not official NWS values.
T = Trace of Precipitation, MM = Missing Value Source: NWS Daily Summary

Daily Weather History Graph

Daily Weather History Graph

Search for Another Location

Airport:

Trip Planner

Search our weather history database for the weather conditions in past years. The results will help you decide how hot, cold, wet, or windy it might be!

Date:

Astronomy

Jun. 27, 2013 Rise Set
Actual Time 5:54 AM CDT 8:00 PM CDT
Civil Twilight 5:26 AM CDT 8:27 PM CDT
Nautical Twilight 4:52 AM CDT 9:01 PM CDT
Astronomical Twilight 4:16 AM CDT 9:37 PM CDT
Moon 11:21 PM CDT (6/27) 10:33 AM CDT (6/27)
Length of Visible Light 15h 01m
Length of Day
14h 06m
Waning Gibbous, 76% of the Moon is Illuminated
Jun 27
Waning Gibbous
Jun 29
Last Quarter
Jul 8
New
Jul 15
First Quarter
Jul 22
Full

Hourly Weather History & Observations

Time (CDT) Temp. Heat Index Dew Point Humidity Pressure Visibility Wind Dir Wind Speed Gust Speed Precip Events Conditions
12:53 AM 81.0 °F 86.7 °F 75.0 °F 82% 30.02 in 10.0 mi Calm Calm - N/A   Clear
1:53 AM 80.1 °F 85.1 °F 75.0 °F 85% 30.01 in 10.0 mi Calm Calm - N/A   Clear
2:53 AM 80.1 °F 85.1 °F 75.0 °F 85% 30.00 in 10.0 mi Calm Calm - N/A   Clear
3:53 AM 79.0 °F - 75.0 °F 88% 30.00 in 10.0 mi Calm Calm - N/A   Clear
4:53 AM 77.0 °F - 75.0 °F 94% 30.01 in 10.0 mi Calm Calm - N/A   Partly Cloudy
5:53 AM 75.9 °F - 73.9 °F 94% 30.02 in 9.0 mi Calm Calm - N/A   Clear
6:53 AM 78.1 °F - 75.9 °F 93% 30.03 in 10.0 mi Calm Calm - N/A   Clear
7:53 AM 82.9 °F 91.8 °F 77.0 °F 82% 30.03 in 10.0 mi Calm Calm - N/A   Clear
8:53 AM 84.9 °F 94.1 °F 75.9 °F 74% 30.03 in 10.0 mi WNW 5.8 mph - N/A   Partly Cloudy
9:53 AM 87.1 °F 96.3 °F 75.0 °F 67% 30.01 in 10.0 mi West 6.9 mph - N/A   Partly Cloudy
10:53 AM 90.0 °F 101.3 °F 75.9 °F 63% 30.01 in 10.0 mi Variable 4.6 mph - N/A   Scattered Clouds
11:53 AM 89.1 °F 98.0 °F 73.9 °F 61% 30.01 in 10.0 mi Calm Calm - N/A   Overcast
12:53 PM 91.0 °F 100.4 °F 73.9 °F 57% 30.00 in 10.0 mi Variable 4.6 mph - N/A   Mostly Cloudy
1:53 PM 91.0 °F 106.2 °F 78.1 °F 66% 29.98 in 10.0 mi SSW 8.1 mph - N/A   Scattered Clouds
2:53 PM 90.0 °F 104.5 °F 78.1 °F 68% 29.96 in 10.0 mi SSW 5.8 mph - N/A   Partly Cloudy
3:53 PM 89.1 °F 100.2 °F 75.9 °F 65% 29.95 in 10.0 mi SSW 9.2 mph - N/A   Scattered Clouds
4:53 PM 88.0 °F 98.5 °F 75.9 °F 67% 29.94 in 10.0 mi South 8.1 mph - N/A   Scattered Clouds
5:53 PM 89.1 °F 100.2 °F 75.9 °F 65% 29.93 in 10.0 mi SW 6.9 mph - N/A   Partly Cloudy
6:53 PM 88.0 °F 98.5 °F 75.9 °F 67% 29.93 in 10.0 mi SW 4.6 mph - N/A   Clear
7:53 PM 84.9 °F 94.1 °F 75.9 °F 74% 29.93 in 10.0 mi SW 3.5 mph - N/A   Partly Cloudy
8:53 PM 82.9 °F 91.8 °F 77.0 °F 82% 29.94 in 10.0 mi Calm Calm - N/A   Clear
9:53 PM 82.0 °F 91.0 °F 78.1 °F 88% 29.95 in 10.0 mi Calm Calm - N/A   Clear
10:53 PM 82.9 °F 92.8 °F 78.1 °F 85% 29.94 in 10.0 mi Calm Calm - N/A   Clear
11:53 PM 82.0 °F 91.0 °F 78.1 °F 88% 29.94 in 10.0 mi Calm Calm - N/A   Clear